星链-35671(STARLINK-35671)

导读 | 豆包AI

STARLINK-35671是美国太空探索技术公司(SpaceX)于2025年11月8日发射的Starlink星链卫星星座成员,部署于近地轨道,旨在为全球尤其是偏远、网络覆盖薄弱地区提供高速低延迟的宽带互联网服务。作为星链组网过程中新补充的卫星,它进一步扩充了星座规模,助力提升全球卫星互联网服务的覆盖能力与稳定性。

基本信息
目录编号:
66392
目录名称:
STARLINK-35671
国际标识:
2025-257N
轨道中心:
EARTH
卫星名称:
星链-35671
卫星全名:
星链-35671(STARLINK-35671)
卫星状态:
在轨 (已飞行172 天)
发射日期:
2025-11-08 UTC
国别 :
美国 (US)
星等 :
--
轨道信息
数据来源 国际轨道数据 AOE轨道数据
星历时间 2026-04-29T05:20:23+0800
7小时前
查看轨道信息
2026-04-28T17:00:00+0800
19小时前
查看轨道信息
半长轴 6853.256km 6853.31km
偏心率 0.0001128 0.0000817
轨道倾角 53.162° 53.159°
近地点辐角 75.575° 84.491°
升交点赤经 343.542° 345.931°
平近点角 284.538° 321.665°
近地点 474.345km 474.613km
远地点 475.893km 475.733km
周期 94.103分钟 94.104分钟
每日圈数 15.302325 15.302142
详细信息
固有亮度:
5
最大亮度:
2.5
卫星平台:
Starlink V1.0
覆盖范围:
全球
运营商:
太空探索技术公司
运营商所在国:
美国
制造商(研发单位):
太空探索技术公司
制造商所在国:
美国
使用方式:
暂无
卫星简介
Starlink 计划是 SpaceX 推出的全球卫星互联网项目,通过发射低轨道卫星,为全球尤其是偏远地区提供高速、低延迟的互联网服务。自 2019 年起,Starlink 已部署数千颗卫星,旨在缩小全球数字鸿沟,推动互联网普及。该项目还为军事、航空等行业提供通信支持,带来广泛经济效益。
2D轨道图
3D轨道图
轨道高度分析图
轨道倾角分析图
轨道综合分析图
查看轨道综合分析图